SCP
0 0 0 0 0 0 0 0 0 0 0 0 0 0 0 0 0 0 0 0 0 0 0 0 0 0 0 0 0 0 -0 -0 0 0 0 0 0 0 0 0 0 0 0 0 0 0 0
0 0 0 0 0 0 0 0 0 0 0 0 0 0 0 0 0 0 0 0 0 0 0 0 0 -0 0 0 0 0 0 0 0 0 0 0 0 0 0 0 0 0 0 0 0 0 0
0 0 0 0 0 0 0 0 0 0 0 0 0 0 0 0 0 0 0 0 0 0 0 0 0 0 0 0 0 0 0 0 0 0 0 0 0 0 0 0 0 0 0 0 0 0 0
0 0 0 0 0 0 0 0 0 0 0 0 0 0 0 0 0 0 0 0 0 0 0 0 0 0 0 -0 0 0 0 -0 0 0 0 0 0 0 0 -0 0 0 0 0 0 0 0
0 0 0 0 0 0 0 0 0 0 0 0 0 0 0 0 0 0 0 0 0 0 0 0 0 0 0 0 0 0 0 -0 -0 0 0 0 0 0 0 -0 0 0 0 0 0 0 0
0 0 0 0 0 0 0 0 0 0 0 0 0 0 0 0 0 0 0 -0 0 0 0 0 0 0 0 0 0 0 -0 -0 0 0 0 0 0 0 0 -0 -0 0 0 0 0 0 0
0 0 0 0 0 0 0 0 0 0 0 0 0 0 0 0 0 0 0 0 0 0 0 0 0 0 0 0 0 0 -0 -0 0 0 0 0 0 0 -0 -0 0 0 0 0 0 0 0
0 0 0 0 0 0 0 0 0 0 0 0 0 0 0 0 0 0 0 0 0 0 0 0 0 0 0 0 0 0 0 0 0 0 0 0 0 0 0 -0 0 0 0 0 0 0 0
0 0 0 0 0 0 0 0 0 0 0 0 0 0 0 0 0 0 0 0 0 0 0 0 0 0 0 0 0 0 0 0 0 0 0 0 0 0 0 -0 0 0 0 0 0 0 0
0 0 0 0 0 0 0 0 0 0 0 0 0 0 0 0 0 0 0 0 0 0 0 0 0 0 0 0 0 0 0 0 0 0 0 0 0 0 0 0 0 0 0 0 0 0 0
0 0 0 0 0 0 0 0 0 0 0 0 0 0 0 0 0 0 0 0 0 0 0 0 0 0 0 0 0 0 0 0 0 0 0 0 0 0 0 0 0 0 0 0 0 0 0
0 0 0 0 0 0 0 0 0 0 0 0 0 0 0 0 0 0 0 0 0 0 0 0 0 0 0 0 0 0 0 0 0 0 0 0 -0 0 0 0 0 0 0 0 0 0 0
0 0 0 0 0 0 0 0 0 0 0 0 0 0 0 0 0 0 0 0 0 0 0 0 0 0 0 0 0 0 0 0 0 0 0 0 0 0 0 0 0 0 0 0 0 0 0
0 0 0 0 0 0 0 0 0 0 0 0 0 0 0 0 0 0 0 0 0 0 0 0 0 0 0 0 0 0 0 0 0 0 0 0 0 0 0 0 0 0 0 0 0 0 0
0 0 0 0 0 0 0 0 0 0 0 0 0 0 0 0 0 0 0 0 0 0 0 0 0 0 0 0 0 0 0 0 0 0 0 0 0 0 0 0 0 0 0 0 0 0 0
0 0 0 0 0 0 0 0 0 0 0 0 0 0 0 0 0 0 0 0 0 0 0 0 0 0 0 0 0 0 0 0 0 0 0 0 0 0 0 -0 -0 0 0 0 0 0 0
0 0 0 0 0 0 0 0 0 0 0 0 0 0 0 0 0 0 0 0 0 0 0 0 0 0 0 0 0 0 0 0 0 0 0 0 0 0 0 0 0 0 0 0 0 0 0
0 0 0 0 0 0 0 0 0 0 0 0 0 0 0 0 0 0 0 0 0 0 0 0 0 0 0 0 0 0 0 0 0 0 0 0 0 0 0 -0 0 0 0 0 0 0 0
0 0 0 0 0 0 0 0 0 0 0 0 0 0 0 0 0 0 0 0 0 0 0 0 0 0 0 0 0 0 0 0 0 0 0 0 0 0 0 0 -0 0 0 0 0 0 0
0 0 0 0 0 0 0 0 0 0 0 0 0 0 0 0 0 0 0 0 0 0 0 0 0 0 0 0 0 0 0 0 0 0 0 0 0 0 0 0 0 0 0 0 0 0 0
0 0 0 0 0 0 0 0 0 0 0 0 0 0 0 0 0 0 0 0 0 0 0 0 0 0 0 0 0 0 0 0 0 0 0 0 0 0 0 0 0 0 0 0 0 0 0
0 0 0 0 0 0 0 0 0 0 0 0 0 0 0 0 0 0 0 0 0 0 0 0 0 0 0 0 0 0 0 0 0 0 0 0 0 0 0 0 0 -0 0 0 0 0 0
0 0 0 0 0 0 0 0 0 0 0 0 0 0 0 0 0 0 0 0 0 0 0 0 0 0 0 0 0 0 0 0 0 0 0 0 0 0 0 0 0 -0 0 0 0 0 0
0 0 0 0 0 0 0 0 0 0 0 0 0 0 0 0 0 0 0 0 0 0 0 0 0 0 0 0 0 0 0 0 0 0 0 0 0 0 0 0 0 0 0 0 0 0 -0
0 0 0 0 0 0 0 -0 0 0 0 0 0 0 0 0 0 0 0 0 0 0 0 0 0 0 0 0 0 0 0 0 0 0 0 0 0 0 0 0 0 0 0 0 0 0 -0
0 0 0 0 0 0 0 0 0 0 0 0 0 0 0 0 0 0 0 0 0 0 0 0 0 0 0 0 0 0 0 0 0 0 0 0 0 0 0 0 0 0 0 0 0 0 0
0 0 0 0 0 0 0 0 0 0 0 0 0 0 0 0 0 0 0 0 0 0 0 0 0 0 0 0 0 0 0 0 0 0 0 0 0 0 0 0 0 0 0 0 0 0 0
0 0 0 0 0 0 0 0 0 0 0 0 0 0 0 0 0 0 0 0 0 0 0 0 0 0 0 0 0 0 0 0 0 0 0 0 0 0 0 0 0 0 0 0 0 0 0
0 0 0 0 0 0 0 0 0 0 0 0 0 0 0 0 0 0 0 0 0 0 0 0 0 0 0 0 0 0 0 0 0 0 0 0 0 0 0 0 0 0 0 0 0 0 0
Wind_Speed_500mb
23 23 21 18 13 13 11 8 5 3 2 3 4 7 9 10 10 9 6 4 5 8 9 22 9 10 11 20 17 18 23 27 19 4 14 22 23 10 10 10 10 11 3 10 7 12 19
26 25 24 21 17 14 11 9 7 6 2 2 4 6 7 9 8 6 9 7 4 8 3 20 30 9 3 14 16 15 18 22 24 31 23 22 26 28 21 8 8 9 14 12 16 8 9
30 30 28 26 21 19 15 11 8 7 4 4 2 5 7 8 9 9 14 6 1 7 2 5 11 10 26 17 15 14 16 22 28 29 29 25 10 6 11 7 10 8 7 9 24 26 5
29 31 33 30 26 23 19 15 11 9 6 5 5 3 8 8 9 8 13 9 7 6 3 3 7 9 12 16 16 9 11 11 16 20 32 18 23 28 14 7 12 10 9 8 6 26 5
27 33 35 36 28 27 21 18 15 13 9 7 8 3 8 7 6 5 2 12 8 10 5 5 2 5 7 12 12 11 6 7 16 19 23 13 21 19 10 6 8 14 5 7 14 7 10
29 33 38 35 35 31 24 23 17 15 12 9 8 6 7 6 7 4 1 14 9 2 1 5 5 5 7 7 11 10 5 4 3 5 6 11 16 10 10 8 4 2 6 9 9 10 13
33 32 36 39 38 34 29 26 22 17 15 11 10 6 9 6 6 6 3 9 2 5 16 13 9 13 9 12 13 7 4 6 7 13 10 17 17 9 9 13 9 10 5 6 9 6 12
40 37 38 40 36 39 33 29 27 21 17 15 12 4 11 5 4 9 4 6 4 15 22 17 12 13 13 8 6 14 5 2 11 9 9 12 7 3 3 9 10 9 6 6 14 10 6
49 40 40 38 42 42 37 36 29 27 20 17 15 5 10 7 2 5 4 11 19 13 10 6 9 8 5 12 12 19 11 7 13 13 11 10 0 6 6 8 5 6 8 5 8 15 6
56 49 46 42 39 41 38 39 33 31 24 19 16 8 10 4 4 2 5 14 10 3 9 4 4 6 8 7 10 17 9 5 11 8 5 8 8 4 3 5 6 6 6 5 8 11 7
62 59 52 47 40 40 42 38 36 37 31 21 16 13 9 2 3 3 4 6 6 6 5 2 3 2 9 7 5 13 17 11 9 8 8 1 9 8 4 5 8 6 2 3 4 5 7
69 67 59 55 49 42 40 41 37 41 34 25 18 16 9 7 5 7 7 4 9 11 8 3 3 4 4 9 5 3 6 13 9 8 10 5 3 2 4 4 8 6 7 9 7 5 6
78 73 70 63 55 49 43 45 38 41 42 28 23 18 13 8 8 10 16 7 9 7 5 4 1 4 6 5 5 8 9 10 2 8 8 11 3 6 4 4 7 6 9 8 11 9 8
85 79 74 69 63 56 49 46 42 44 44 33 27 21 17 12 13 17 15 9 5 3 8 0 2 4 5 4 3 4 6 1 3 9 8 8 12 6 8 3 4 7 7 10 8 6 11
92 83 78 72 69 60 55 51 49 45 44 36 28 23 21 18 18 19 8 7 14 10 10 15 4 4 4 1 2 4 2 8 6 8 10 8 9 5 4 4 6 6 11 6 11 5 5
53 86 84 80 76 67 60 57 54 49 49 40 30 23 23 24 21 18 7 9 7 7 13 3 11 4 7 5 4 2 4 4 8 1 4 8 6 2 6 5 7 2 13 8 7 7 11
34 60 79 81 79 72 69 65 62 57 52 44 32 15 20 29 26 12 8 11 4 6 8 8 9 8 5 9 9 6 5 2 7 8 3 9 7 8 3 3 6 2 3 9 9 6 8
44 43 68 79 87 83 84 75 69 63 56 50 33 4 22 41 11 3 8 15 11 8 7 3 5 6 12 11 9 7 10 6 15 20 8 5 8 5 11 4 2 2 6 6 8 9 4
40 39 36 49 79 89 96 89 81 77 76 74 29 12 29 47 9 5 1 7 11 9 9 9 10 4 5 11 3 7 7 1 16 10 9 12 2 6 10 7 7 5 7 5 11 6 10
41 37 38 33 37 69 89 97 98 90 85 76 31 4 10 31 11 16 10 7 13 14 9 11 8 9 8 3 3 10 8 7 14 5 10 14 4 11 10 10 8 4 6 11 10 7 9
38 37 35 38 40 27 69 91 107 101 99 83 44 15 21 11 11 11 17 21 16 16 12 16 3 11 13 9 3 11 6 5 3 14 8 6 7 4 7 6 3 8 10 17 17 11 13
43 33 36 39 38 38 35 62 101 108 107 86 41 25 21 12 29 18 17 18 23 10 20 12 11 17 12 11 17 20 15 10 11 9 12 5 4 4 8 2 1 10 18 21 13 6 19
45 45 40 32 45 48 43 45 40 96 117 50 68 49 34 26 15 21 27 20 24 30 21 15 23 12 17 24 9 6 14 12 25 18 15 13 11 5 10 4 6 13 17 28 12 12 16
43 54 50 40 33 56 53 46 27 98 115 84 66 57 27 8 17 21 17 44 27 43 26 14 20 14 12 31 42 39 40 34 26 17 10 11 10 4 6 7 4 10 8 14 15 10 36
36 32 54 53 46 42 50 49 48 29 120 105 64 69 32 12 31 20 21 17 27 26 10 20 20 20 46 22 8 7 7 6 7 8 5 2 8 5 3 5 15 5 10 16 16 16 40
35 33 31 39 52 54 53 45 42 37 52 47 71 74 63 19 29 50 27 31 11 11 7 8 20 48 52 5 6 11 11 12 6 8 8 6 8 6 5 7 11 8 6 17 7 11 19
33 32 30 30 35 53 46 60 47 45 50 35 47 67 51 20 27 61 24 29 31 21 8 16 22 21 21 3 5 7 9 4 12 20 12 6 3 11 5 7 17 14 17 21 10 12 18
39 36 32 29 33 39 51 49 48 43 41 48 41 29 48 10 31 43 68 42 37 49 13 31 17 7 5 10 10 9 8 15 6 9 15 16 17 9 6 4 17 34 16 16 8 9 20
42 37 34 31 30 32 46 46 47 47 43 37 48 46 43 35 13 20 54 77 78 79 58 65 19 26 33 9 8 5 4 4 9 9 3 9 15 14 22 17 3 70 16 48 8 13 23
Wind_Direction_500mb
229 226 224 226 219 223 203 209 238 265 12 352 7 26 13 30 40 51 23 325 327 346 2 23 68 72 66 71 55 49 57 53 43 54 83 92 71 79 86 83 59 79 97 53 42 66 84
233 231 227 228 225 224 225 211 217 239 222 263 346 355 5 6 35 41 5 348 328 345 316 68 54 65 55 74 64 58 70 65 63 58 73 78 88 93 87 76 74 103 90 59 41 55 52
246 245 233 223 232 227 222 226 215 246 260 285 321 336 343 1 8 352 352 355 36 7 66 250 334 48 69 76 58 74 82 77 64 61 67 74 95 104 103 93 83 89 64 13 18 356 23
246 243 228 225 228 231 227 221 225 239 242 258 273 334 320 358 0 5 34 72 62 61 356 334 57 77 81 71 64 83 102 77 69 62 59 85 87 78 68 114 44 47 54 11 356 9 356
242 233 234 228 233 230 231 230 223 233 241 250 272 313 302 346 348 337 324 20 100 73 46 24 7 105 73 77 66 73 100 95 81 77 69 64 74 59 56 43 38 23 21 337 324 40 344
244 239 234 236 237 231 221 239 232 235 242 243 262 290 295 333 335 341 90 81 94 344 54 350 51 89 73 51 71 62 83 177 75 46 35 44 55 62 19 32 135 13 17 321 285 317 348
247 241 237 235 240 225 229 232 237 239 244 247 264 273 283 320 331 339 146 197 243 63 79 79 69 91 85 75 71 32 318 75 86 57 41 27 60 51 308 285 132 130 96 305 278 310 349
239 247 240 234 227 229 227 226 238 234 240 249 257 257 280 307 330 341 217 194 193 139 97 74 78 76 55 70 86 56 22 22 51 60 348 27 68 336 276 321 98 71 63 315 283 277 308
236 238 246 231 231 231 230 236 234 239 234 246 255 252 265 307 292 359 119 129 132 129 84 71 61 59 22 51 45 26 28 72 76 54 16 105 328 9 134 333 122 66 77 311 256 320 251
235 234 240 241 228 237 234 231 229 239 234 242 253 258 253 305 238 126 132 130 129 134 78 323 8 26 353 93 54 33 30 67 49 134 86 70 347 22 75 306 288 109 141 274 305 16 310
233 232 234 239 238 236 234 231 237 232 235 233 245 248 255 178 173 135 239 170 139 114 11 359 28 63 40 84 106 19 31 60 109 128 109 283 8 1 32 288 304 193 80 91 350 350 11
233 231 233 235 236 239 238 234 237 236 225 228 228 247 230 248 182 155 135 172 126 47 263 329 322 25 53 28 47 3 63 70 120 96 47 92 23 346 299 310 277 304 118 64 57 15 19
232 232 228 234 233 235 240 242 231 235 233 220 222 232 235 218 198 164 136 141 37 132 21 256 194 59 87 15 26 46 30 26 18 61 2 353 308 312 27 299 292 43 51 357 358 10 222
229 230 231 229 231 234 236 240 234 231 229 224 212 217 222 196 205 155 154 71 82 268 196 227 122 95 102 2 14 42 81 16 6 71 95 119 318 340 4 89 295 5 113 135 234 311 288
236 229 229 230 229 232 232 233 232 227 223 222 213 208 211 201 187 166 163 89 200 208 149 146 52 95 345 50 99 54 89 191 173 174 132 125 283 318 52 15 94 281 50 139 100 34 344
234 235 228 228 228 228 229 230 227 221 223 215 208 208 212 193 179 166 94 234 170 155 127 156 158 149 177 209 168 146 190 179 141 261 262 193 0 248 325 41 6 113 164 73 12 41 316
243 229 229 237 230 229 229 227 224 217 213 207 199 222 196 189 173 188 160 213 206 177 147 146 186 140 183 183 184 191 205 204 167 150 188 140 105 282 13 165 180 1 42 58 106 115 154
242 236 233 235 238 230 229 225 220 211 204 197 188 243 182 178 170 287 161 173 147 167 173 152 139 118 178 160 168 228 213 224 174 162 151 162 137 234 215 233 337 279 225 146 121 250 129
249 249 242 229 228 240 234 224 217 208 202 187 165 198 188 184 157 248 18 117 154 144 201 169 174 186 124 179 197 183 178 191 169 179 174 167 282 347 345 13 1 230 208 127 92 73 198
254 254 249 246 235 228 230 228 217 209 202 196 160 146 204 214 196 154 145 190 167 200 165 166 147 131 119 105 351 192 175 173 183 159 127 130 107 185 197 186 129 194 218 182 131 126 174
243 252 254 251 243 268 233 230 227 208 201 188 182 197 185 192 244 173 171 166 153 174 209 193 127 219 166 147 28 212 161 140 142 159 123 146 213 176 271 265 204 209 187 194 192 192 174
244 237 236 245 248 237 216 214 233 210 199 188 183 177 168 164 174 155 184 199 169 156 150 216 200 181 182 187 192 197 148 193 188 169 163 167 229 125 287 307 108 269 223 205 210 251 279
240 242 242 237 242 251 249 183 216 217 196 195 205 201 196 171 157 181 210 182 197 143 201 182 207 119 192 225 180 90 149 154 149 150 173 156 137 114 270 346 343 300 223 186 187 209 173
251 244 245 243 237 247 255 254 243 211 210 200 201 194 181 204 189 205 170 199 191 200 189 172 162 148 188 150 111 91 83 89 93 63 138 145 120 94 255 351 335 240 132 177 202 224 219
258 257 239 241 242 236 243 256 252 202 209 204 205 194 192 208 195 210 191 176 172 172 142 161 174 173 162 144 85 84 348 27 354 30 12 341 135 90 151 219 296 213 188 163 178 273 205
249 257 259 249 241 242 239 240 248 235 235 256 217 198 202 187 210 203 181 169 146 155 120 141 161 157 167 177 126 173 192 193 243 351 12 85 60 118 121 172 227 248 184 183 199 298 190
242 253 255 258 256 239 238 234 238 242 240 258 222 208 199 208 217 197 190 199 189 143 125 135 134 172 178 144 156 185 220 167 177 171 175 128 63 179 162 230 285 236 151 146 99 240 179
241 248 257 262 263 259 238 238 234 240 233 233 238 223 210 218 231 209 208 198 180 186 159 147 108 144 134 181 185 204 175 212 133 164 175 164 158 186 106 119 270 155 115 180 214 163 182
237 239 249 255 257 274 242 230 226 232 223 219 237 238 245 245 258 246 231 221 224 222 191 171 184 157 167 172 212 131 161 130 154 207 132 226 188 182 189 206 257 182 201 211 221 201 190
Wind_Speed_850mb
23 23 21 18 13 13 11 8 5 3 2 3 4 7 9 10 10 9 6 4 5 8 9 22 9 10 11 20 17 18 23 27 19 4 14 22 23 10 10 10 10 11 3 10 7 12 19
26 25 24 21 17 14 11 9 7 6 2 2 4 6 7 9 8 6 9 7 4 8 3 20 30 9 3 14 16 15 18 22 24 31 23 22 26 28 21 8 8 9 14 12 16 8 9
30 30 28 26 21 19 15 11 8 7 4 4 2 5 7 8 9 9 14 6 1 7 2 5 11 10 26 17 15 14 16 22 28 29 29 25 10 6 11 7 10 8 7 9 24 26 5
29 31 33 30 26 23 19 15 11 9 6 5 5 3 8 8 9 8 13 9 7 6 3 3 7 9 12 16 16 9 11 11 16 20 32 18 23 28 14 7 12 10 9 8 6 26 5
27 33 35 36 28 27 21 18 15 13 9 7 8 3 8 7 6 5 2 12 8 10 5 5 2 5 7 12 12 11 6 7 16 19 23 13 21 19 10 6 8 14 5 7 14 7 10
29 33 38 35 35 31 24 23 17 15 12 9 8 6 7 6 7 4 1 14 9 2 1 5 5 5 7 7 11 10 5 4 3 5 6 11 16 10 10 8 4 2 6 9 9 10 13
33 32 36 39 38 34 29 26 22 17 15 11 10 6 9 6 6 6 3 9 2 5 16 13 9 13 9 12 13 7 4 6 7 13 10 17 17 9 9 13 9 10 5 6 9 6 12
40 37 38 40 36 39 33 29 27 21 17 15 12 4 11 5 4 9 4 6 4 15 22 17 12 13 13 8 6 14 5 2 11 9 9 12 7 3 3 9 10 9 6 6 14 10 6
49 40 40 38 42 42 37 36 29 27 20 17 15 5 10 7 2 5 4 11 19 13 10 6 9 8 5 12 12 19 11 7 13 13 11 10 0 6 6 8 5 6 8 5 8 15 6
56 49 46 42 39 41 38 39 33 31 24 19 16 8 10 4 4 2 5 14 10 3 9 4 4 6 8 7 10 17 9 5 11 8 5 8 8 4 3 5 6 6 6 5 8 11 7
62 59 52 47 40 40 42 38 36 37 31 21 16 13 9 2 3 3 4 6 6 6 5 2 3 2 9 7 5 13 17 11 9 8 8 1 9 8 4 5 8 6 2 3 4 5 7
69 67 59 55 49 42 40 41 37 41 34 25 18 16 9 7 5 7 7 4 9 11 8 3 3 4 4 9 5 3 6 13 9 8 10 5 3 2 4 4 8 6 7 9 7 5 6
78 73 70 63 55 49 43 45 38 41 42 28 23 18 13 8 8 10 16 7 9 7 5 4 1 4 6 5 5 8 9 10 2 8 8 11 3 6 4 4 7 6 9 8 11 9 8
85 79 74 69 63 56 49 46 42 44 44 33 27 21 17 12 13 17 15 9 5 3 8 0 2 4 5 4 3 4 6 1 3 9 8 8 12 6 8 3 4 7 7 10 8 6 11
92 83 78 72 69 60 55 51 49 45 44 36 28 23 21 18 18 19 8 7 14 10 10 15 4 4 4 1 2 4 2 8 6 8 10 8 9 5 4 4 6 6 11 6 11 5 5
53 86 84 80 76 67 60 57 54 49 49 40 30 23 23 24 21 18 7 9 7 7 13 3 11 4 7 5 4 2 4 4 8 1 4 8 6 2 6 5 7 2 13 8 7 7 11
34 60 79 81 79 72 69 65 62 57 52 44 32 15 20 29 26 12 8 11 4 6 8 8 9 8 5 9 9 6 5 2 7 8 3 9 7 8 3 3 6 2 3 9 9 6 8
44 43 68 79 87 83 84 75 69 63 56 50 33 4 22 41 11 3 8 15 11 8 7 3 5 6 12 11 9 7 10 6 15 20 8 5 8 5 11 4 2 2 6 6 8 9 4
40 39 36 49 79 89 96 89 81 77 76 74 29 12 29 47 9 5 1 7 11 9 9 9 10 4 5 11 3 7 7 1 16 10 9 12 2 6 10 7 7 5 7 5 11 6 10
41 37 38 33 37 69 89 97 98 90 85 76 31 4 10 31 11 16 10 7 13 14 9 11 8 9 8 3 3 10 8 7 14 5 10 14 4 11 10 10 8 4 6 11 10 7 9
38 37 35 38 40 27 69 91 107 101 99 83 44 15 21 11 11 11 17 21 16 16 12 16 3 11 13 9 3 11 6 5 3 14 8 6 7 4 7 6 3 8 10 17 17 11 13
43 33 36 39 38 38 35 62 101 108 107 86 41 25 21 12 29 18 17 18 23 10 20 12 11 17 12 11 17 20 15 10 11 9 12 5 4 4 8 2 1 10 18 21 13 6 19
45 45 40 32 45 48 43 45 40 96 117 50 68 49 34 26 15 21 27 20 24 30 21 15 23 12 17 24 9 6 14 12 25 18 15 13 11 5 10 4 6 13 17 28 12 12 16
43 54 50 40 33 56 53 46 27 98 115 84 66 57 27 8 17 21 17 44 27 43 26 14 20 14 12 31 42 39 40 34 26 17 10 11 10 4 6 7 4 10 8 14 15 10 36
36 32 54 53 46 42 50 49 48 29 120 105 64 69 32 12 31 20 21 17 27 26 10 20 20 20 46 22 8 7 7 6 7 8 5 2 8 5 3 5 15 5 10 16 16 16 40
35 33 31 39 52 54 53 45 42 37 52 47 71 74 63 19 29 50 27 31 11 11 7 8 20 48 52 5 6 11 11 12 6 8 8 6 8 6 5 7 11 8 6 17 7 11 19
33 32 30 30 35 53 46 60 47 45 50 35 47 67 51 20 27 61 24 29 31 21 8 16 22 21 21 3 5 7 9 4 12 20 12 6 3 11 5 7 17 14 17 21 10 12 18
39 36 32 29 33 39 51 49 48 43 41 48 41 29 48 10 31 43 68 42 37 49 13 31 17 7 5 10 10 9 8 15 6 9 15 16 17 9 6 4 17 34 16 16 8 9 20
42 37 34 31 30 32 46 46 47 47 43 37 48 46 43 35 13 20 54 77 78 79 58 65 19 26 33 9 8 5 4 4 9 9 3 9 15 14 22 17 3 70 16 48 8 13 23
Wind_Direction_850mb
229 226 224 226 219 223 203 209 238 265 12 352 7 26 13 30 40 51 23 325 327 346 2 23 68 72 66 71 55 49 57 53 43 54 83 92 71 79 86 83 59 79 97 53 42 66 84
233 231 227 228 225 224 225 211 217 239 222 263 346 355 5 6 35 41 5 348 328 345 316 68 54 65 55 74 64 58 70 65 63 58 73 78 88 93 87 76 74 103 90 59 41 55 52
246 245 233 223 232 227 222 226 215 246 260 285 321 336 343 1 8 352 352 355 36 7 66 250 334 48 69 76 58 74 82 77 64 61 67 74 95 104 103 93 83 89 64 13 18 356 23
246 243 228 225 228 231 227 221 225 239 242 258 273 334 320 358 0 5 34 72 62 61 356 334 57 77 81 71 64 83 102 77 69 62 59 85 87 78 68 114 44 47 54 11 356 9 356
242 233 234 228 233 230 231 230 223 233 241 250 272 313 302 346 348 337 324 20 100 73 46 24 7 105 73 77 66 73 100 95 81 77 69 64 74 59 56 43 38 23 21 337 324 40 344
244 239 234 236 237 231 221 239 232 235 242 243 262 290 295 333 335 341 90 81 94 344 54 350 51 89 73 51 71 62 83 177 75 46 35 44 55 62 19 32 135 13 17 321 285 317 348
247 241 237 235 240 225 229 232 237 239 244 247 264 273 283 320 331 339 146 197 243 63 79 79 69 91 85 75 71 32 318 75 86 57 41 27 60 51 308 285 132 130 96 305 278 310 349
239 247 240 234 227 229 227 226 238 234 240 249 257 257 280 307 330 341 217 194 193 139 97 74 78 76 55 70 86 56 22 22 51 60 348 27 68 336 276 321 98 71 63 315 283 277 308
236 238 246 231 231 231 230 236 234 239 234 246 255 252 265 307 292 359 119 129 132 129 84 71 61 59 22 51 45 26 28 72 76 54 16 105 328 9 134 333 122 66 77 311 256 320 251
235 234 240 241 228 237 234 231 229 239 234 242 253 258 253 305 238 126 132 130 129 134 78 323 8 26 353 93 54 33 30 67 49 134 86 70 347 22 75 306 288 109 141 274 305 16 310
233 232 234 239 238 236 234 231 237 232 235 233 245 248 255 178 173 135 239 170 139 114 11 359 28 63 40 84 106 19 31 60 109 128 109 283 8 1 32 288 304 193 80 91 350 350 11
233 231 233 235 236 239 238 234 237 236 225 228 228 247 230 248 182 155 135 172 126 47 263 329 322 25 53 28 47 3 63 70 120 96 47 92 23 346 299 310 277 304 118 64 57 15 19
232 232 228 234 233 235 240 242 231 235 233 220 222 232 235 218 198 164 136 141 37 132 21 256 194 59 87 15 26 46 30 26 18 61 2 353 308 312 27 299 292 43 51 357 358 10 222
229 230 231 229 231 234 236 240 234 231 229 224 212 217 222 196 205 155 154 71 82 268 196 227 122 95 102 2 14 42 81 16 6 71 95 119 318 340 4 89 295 5 113 135 234 311 288
236 229 229 230 229 232 232 233 232 227 223 222 213 208 211 201 187 166 163 89 200 208 149 146 52 95 345 50 99 54 89 191 173 174 132 125 283 318 52 15 94 281 50 139 100 34 344
234 235 228 228 228 228 229 230 227 221 223 215 208 208 212 193 179 166 94 234 170 155 127 156 158 149 177 209 168 146 190 179 141 261 262 193 0 248 325 41 6 113 164 73 12 41 316
243 229 229 237 230 229 229 227 224 217 213 207 199 222 196 189 173 188 160 213 206 177 147 146 186 140 183 183 184 191 205 204 167 150 188 140 105 282 13 165 180 1 42 58 106 115 154
242 236 233 235 238 230 229 225 220 211 204 197 188 243 182 178 170 287 161 173 147 167 173 152 139 118 178 160 168 228 213 224 174 162 151 162 137 234 215 233 337 279 225 146 121 250 129
249 249 242 229 228 240 234 224 217 208 202 187 165 198 188 184 157 248 18 117 154 144 201 169 174 186 124 179 197 183 178 191 169 179 174 167 282 347 345 13 1 230 208 127 92 73 198
254 254 249 246 235 228 230 228 217 209 202 196 160 146 204 214 196 154 145 190 167 200 165 166 147 131 119 105 351 192 175 173 183 159 127 130 107 185 197 186 129 194 218 182 131 126 174
243 252 254 251 243 268 233 230 227 208 201 188 182 197 185 192 244 173 171 166 153 174 209 193 127 219 166 147 28 212 161 140 142 159 123 146 213 176 271 265 204 209 187 194 192 192 174
244 237 236 245 248 237 216 214 233 210 199 188 183 177 168 164 174 155 184 199 169 156 150 216 200 181 182 187 192 197 148 193 188 169 163 167 229 125 287 307 108 269 223 205 210 251 279
240 242 242 237 242 251 249 183 216 217 196 195 205 201 196 171 157 181 210 182 197 143 201 182 207 119 192 225 180 90 149 154 149 150 173 156 137 114 270 346 343 300 223 186 187 209 173
251 244 245 243 237 247 255 254 243 211 210 200 201 194 181 204 189 205 170 199 191 200 189 172 162 148 188 150 111 91 83 89 93 63 138 145 120 94 255 351 335 240 132 177 202 224 219
258 257 239 241 242 236 243 256 252 202 209 204 205 194 192 208 195 210 191 176 172 172 142 161 174 173 162 144 85 84 348 27 354 30 12 341 135 90 151 219 296 213 188 163 178 273 205
249 257 259 249 241 242 239 240 248 235 235 256 217 198 202 187 210 203 181 169 146 155 120 141 161 157 167 177 126 173 192 193 243 351 12 85 60 118 121 172 227 248 184 183 199 298 190
242 253 255 258 256 239 238 234 238 242 240 258 222 208 199 208 217 197 190 199 189 143 125 135 134 172 178 144 156 185 220 167 177 171 175 128 63 179 162 230 285 236 151 146 99 240 179
241 248 257 262 263 259 238 238 234 240 233 233 238 223 210 218 231 209 208 198 180 186 159 147 108 144 134 181 185 204 175 212 133 164 175 164 158 186 106 119 270 155 115 180 214 163 182
237 239 249 255 257 274 242 230 226 232 223 219 237 238 245 245 258 246 231 221 224 222 191 171 184 157 167 172 212 131 161 130 154 207 132 226 188 182 189 206 257 182 201 211 221 201 190